Hauptseite
METAR-TAF:

METAR-TAF

Flughäfen :

Bric della Croce

Turin, Italien

Breite: 45-02N, Länge: 007-44E, Höhe: 709 m

Beobachtung

Neuester Wetterbericht von vor 1 Stunde und 19 Minuten, um 06:55 UTC
Wind 5 kt aus West
Temperatur 23°C
Luftfeuchtigkeit 73%
Luftdruck 1021 hPa
Sichtweite 10 km oder mehr
keine Wolken unter 1500 m und keine Kumulonimbus oder Gewitterwolken

METAR: LIMK 190655Z 27005KT CAVOK 23/18 Q1021 RMK SKC VAL NIL VIS MIN 9999

Zeit: 10:14 (08:14 UTC)


TAF: fehlend

Wetterbeobachtungen und Prognosen von mehr als 4000 Flughäfen (METAR und TAF Bericht).

Die verfügbaren Stationen werden durch gelbe und rote Markierungen auf der Karte dargestellt.

Führen Sie die Maus auf sie, um den Namen der Station zu sehen.

Darauf klicken, um die Beobachtung von Wetterbeobachtungen und Prognosen zu sehen.

Um die Karte zu ändern : klicken Sie auf den grünen Tasten mit einem schwarzen Kreuz Zum Vergrößern, auf den grünen Button mit einem Gedankenstrich zu verkleinern, oder auf die grünen Pfeile für benachbarte Karten.


METAR-TAF: